Погода в Шушенском

Россия / Красноярский край     53°19′44″N   91°57′02″E
темп.,
°C
ветер,
м/с
пор.,
м/с
влажн.,
%
обл.,
%
осадки,
мм/ч
давл.,
гПа
погр.,
м
25 февраля, чт
чт2501:00−13з2393100 0.0 101739
04:00−14всв2394100 0.0 101527
07:00−12зсз2393100 0.0 101455
10:00−9зсз2390100 0.0 1011187
13:00−8з4595100 1.6 1012250
16:00−6сз3595100 1.5 1015404
19:00−10всв2382100 2.5 102034
22:00−12в2296100 0.5 102279
26 февраля, пт
пт2601:00−14сз5796100 2.0 1026470
04:00−18ю2388100 0.4 102829
07:00−19юв128599 0.4 103020
10:00−17зсз6109097 0.1 1030718
13:00−17з8107899 0.2 10321286
16:00−17з91565100 0.0 10342037
19:00−19зюз41281100 0.0 1037543
22:00−21юз3381100 0.0 103861
27 февраля, сб
сб2701:00−21юз2382100 0.0 103984
04:00−21ю2384100 0.0 104041
07:00−21ююз2381100 0.0 104043
10:00−18ю2382100 0.0 1040195
13:00−14з4770100 0.0 10381373
16:00−14зсз5869100 0.0 1037847
19:00−17зюз2383100 0.0 103936
22:00−17ю2285100 0.0 104022
28 февраля, вс
вс2801:00−17ююз2285100 0.0 104020
04:00−17ююз2292100 0.0 104121
07:00−18ююз1288100 0.1 104220
10:00−15св1185100 0.0 1041135
13:00−12с218194 0.0 1040422
16:00−11зсз017765 0.0 1038363
19:00−16вюв228534 0.0 103920
22:00−16вюв239099 0.0 104026
1 марта, пн
пн101:00−16в228899 0.0 103922
04:00−18ююв0185100 0.0 103720
07:00−18в1283100 0.0 103520
10:00−14в2380100 0.0 1032169
13:00−10с1175100 0.0 1028407
16:00−6в2379100 0.0 1024436
19:00−6ю0192100 0.2 102332
22:00−7вюв2293100 0.3 102335